WAT2665 WADD-WIII

Flight info

Callsign WAT2665
Flight time 1h 16m
Altitude 40000
Route OKANG T4 FARIZ T6 KURUS
Aircraft MD11/H-SDE1E2E3FGHIJ2J3J4J5M1RWXY/LB1D1

Departure

Time 2026-04-28 13:58
Airport Denpasar I Gusti Ngurah Rai International Airport (WADD)

Arrival

Time 2026-04-28 15:14
Airport Soekarno-Hatta International Airport (WIII)
Time Latitude Longitude Altitude Speed Heading
2026-04-28 13:41 -8.74421 115.16122 41 ft 0 kts 88°
2026-04-28 13:49 -8.74421 115.16120 41 ft 2 kts 88°
2026-04-28 13:50 -8.74422 115.16095 41 ft 2 kts 88°
2026-04-28 13:50 -8.74421 115.16076 40 ft 4 kts 124°
2026-04-28 13:50 -8.74407 115.16064 39 ft 4 kts 169°
2026-04-28 13:50 -8.74380 115.16060 40 ft 4 kts 177°
2026-04-28 13:51 -8.74375 115.16060 41 ft 1 kts 177°
2026-04-28 13:53 -8.74385 115.16061 41 ft 6 kts 177°
2026-04-28 13:53 -8.74464 115.16064 39 ft 14 kts 177°
2026-04-28 13:53 -8.74553 115.16068 41 ft 12 kts 177°
2026-04-28 13:54 -8.74634 115.16072 39 ft 11 kts 177°
2026-04-28 13:54 -8.74683 115.16065 40 ft 3 kts 209°
2026-04-28 13:54 -8.74697 115.16043 40 ft 6 kts 238°
2026-04-28 13:54 -8.74710 115.15985 40 ft 10 kts 266°
2026-04-28 13:55 -8.74713 115.15917 40 ft 8 kts 267°
2026-04-28 13:55 -8.74717 115.15838 40 ft 16 kts 268°
2026-04-28 13:55 -8.74722 115.15693 40 ft 25 kts 268°
2026-04-28 13:55 -8.74729 115.15510 40 ft 25 kts 267°
2026-04-28 13:56 -8.74743 115.15412 38 ft 4 kts 238°
2026-04-28 13:56 -8.74774 115.15395 39 ft 8 kts 194°
2026-04-28 13:56 -8.74847 115.15392 36 ft 14 kts 178°
2026-04-28 13:56 -8.74895 115.15404 36 ft 1 kts 136°
2026-04-28 13:57 -8.74896 115.15412 36 ft 2 kts 111°
2026-04-28 13:57 -8.74896 115.15419 36 ft 0 kts 90°
2026-04-28 13:57 -8.74889 115.15614 36 ft 65 kts 87°
2026-04-28 13:58 -8.74861 115.16411 40 ft 157 kts 90°
2026-04-28 13:58 -8.74830 115.17610 765 ft 174 kts 91°
2026-04-28 13:58 -8.74788 115.18727 2261 ft 159 kts 90°
2026-04-28 13:58 -8.74606 115.19955 2609 ft 201 kts 69°
2026-04-28 13:59 -8.73637 115.21161 2850 ft 245 kts 34°
2026-04-28 13:59 -8.72071 115.21641 4297 ft 239 kts
2026-04-28 13:59 -8.70944 115.21720 5073 ft 245 kts 360°
2026-04-28 13:59 -8.69470 115.21351 6098 ft 252 kts 334°
2026-04-28 14:00 -8.68121 115.20206 7214 ft 259 kts 307°
2026-04-28 14:00 -8.67156 115.18638 8172 ft 269 kts 300°
2026-04-28 14:00 -8.66269 115.16959 8978 ft 272 kts 298°
2026-04-28 14:00 -8.65340 115.15170 9484 ft 297 kts 298°
2026-04-28 14:01 -8.64358 115.13311 10465 ft 302 kts 298°
2026-04-28 14:01 -8.63309 115.11355 10813 ft 333 kts 299°
2026-04-28 14:01 -8.62140 115.09207 10954 ft 364 kts 299°
2026-04-28 14:01 -8.60882 115.06911 11435 ft 379 kts 300°
2026-04-28 14:02 -8.59592 115.04571 12227 ft 383 kts 300°
2026-04-28 14:02 -8.58285 115.02207 13016 ft 388 kts 300°
2026-04-28 14:02 -8.56958 114.99814 13773 ft 393 kts 300°
2026-04-28 14:02 -8.55612 114.97392 14508 ft 397 kts 300°
2026-04-28 14:03 -8.54254 114.94947 15224 ft 402 kts 300°
2026-04-28 14:03 -8.52884 114.92478 15981 ft 403 kts 300°
2026-04-28 14:03 -8.51528 114.90028 16643 ft 406 kts 300°
2026-04-28 14:03 -8.50140 114.87529 17331 ft 410 kts 300°
2026-04-28 14:04 -8.48736 114.85004 17980 ft 414 kts 300°
2026-04-28 14:04 -8.47317 114.82457 18627 ft 418 kts 300°
2026-04-28 14:04 -8.45883 114.79885 19232 ft 422 kts 300°
2026-04-28 14:04 -8.44438 114.77290 19818 ft 426 kts 300°
2026-04-28 14:05 -8.42981 114.74674 20370 ft 430 kts 300°
2026-04-28 14:05 -8.41510 114.72032 20953 ft 434 kts 300°
2026-04-28 14:05 -8.40021 114.69358 21529 ft 437 kts 300°
2026-04-28 14:05 -8.38527 114.66676 22138 ft 440 kts 300°
2026-04-28 14:06 -8.37020 114.63971 22720 ft 443 kts 300°
2026-04-28 14:06 -8.35504 114.61241 23244 ft 447 kts 300°
2026-04-28 14:06 -8.33973 114.58491 23797 ft 451 kts 300°
2026-04-28 14:06 -8.32424 114.55713 24175 ft 460 kts 300°
2026-04-28 14:07 -8.30835 114.52862 24297 ft 473 kts 300°
2026-04-28 14:07 -8.29203 114.49935 24429 ft 484 kts 300°
2026-04-28 14:07 -8.27535 114.46943 24556 ft 493 kts 300°
2026-04-28 14:07 -8.25841 114.43907 24684 ft 500 kts 300°
2026-04-28 14:08 -8.24147 114.40872 24809 ft 504 kts 300°
2026-04-28 14:08 -8.22422 114.37783 24934 ft 506 kts 300°
2026-04-28 14:08 -8.20694 114.34687 25060 ft 506 kts 300°
2026-04-28 14:08 -8.18967 114.31591 25183 ft 506 kts 300°
2026-04-28 14:09 -8.17240 114.28499 25308 ft 506 kts 300°
2026-04-28 14:09 -8.15515 114.25409 25437 ft 506 kts 300°
2026-04-28 14:09 -8.13786 114.22313 25566 ft 506 kts 300°
2026-04-28 14:09 -8.12060 114.19223 25677 ft 506 kts 300°
2026-04-28 14:10 -8.10333 114.16131 25821 ft 505 kts 300°
2026-04-28 14:10 -8.08606 114.13041 25936 ft 505 kts 300°
2026-04-28 14:10 -8.06880 114.09954 26054 ft 505 kts 300°
2026-04-28 14:10 -8.05154 114.06868 26184 ft 505 kts 300°
2026-04-28 14:11 -8.03428 114.03781 26307 ft 505 kts 300°
2026-04-28 14:11 -8.01703 114.00698 26433 ft 504 kts 300°
2026-04-28 14:11 -7.99980 113.97618 26561 ft 504 kts 300°
2026-04-28 14:11 -7.98256 113.94539 26679 ft 504 kts 300°
2026-04-28 14:12 -7.96528 113.91455 26808 ft 504 kts 300°
2026-04-28 14:12 -7.94803 113.88379 26930 ft 504 kts 300°
2026-04-28 14:12 -7.93102 113.85343 27056 ft 504 kts 300°
2026-04-28 14:12 -7.91380 113.82268 27180 ft 504 kts 300°
2026-04-28 14:13 -7.89664 113.79191 27309 ft 503 kts 300°
2026-04-28 14:13 -7.87959 113.76127 27775 ft 491 kts 300°
2026-04-28 14:13 -7.86295 113.73141 28675 ft 488 kts 300°
2026-04-28 14:13 -7.84625 113.70150 29197 ft 491 kts 300°
2026-04-28 14:14 -7.82943 113.67139 29636 ft 495 kts 300°
2026-04-28 14:14 -7.81252 113.64108 29918 ft 497 kts 300°
2026-04-28 14:14 -7.79553 113.61060 30102 ft 499 kts 300°
2026-04-28 14:14 -7.77851 113.58006 30227 ft 500 kts 300°
2026-04-28 14:15 -7.76146 113.54946 30354 ft 500 kts 300°
2026-04-28 14:15 -7.74442 113.51889 30480 ft 501 kts 300°
2026-04-28 14:15 -7.72734 113.48826 30601 ft 501 kts 300°
2026-04-28 14:15 -7.71029 113.45770 30729 ft 500 kts 300°
2026-04-28 14:16 -7.69324 113.42714 30854 ft 500 kts 300°
2026-04-28 14:16 -7.67640 113.39697 30977 ft 500 kts 300°
2026-04-28 14:16 -7.65936 113.36644 31102 ft 500 kts 300°
2026-04-28 14:16 -7.64233 113.33594 31228 ft 499 kts 300°
2026-04-28 14:17 -7.62534 113.30551 31352 ft 499 kts 300°
2026-04-28 14:17 -7.60830 113.27499 31478 ft 498 kts 300°
2026-04-28 14:17 -7.59131 113.24457 31605 ft 498 kts 300°
2026-04-28 14:17 -7.57435 113.21418 31729 ft 497 kts 300°
2026-04-28 14:18 -7.55738 113.18381 31856 ft 497 kts 300°
2026-04-28 14:18 -7.54044 113.15352 31973 ft 497 kts 300°
2026-04-28 14:18 -7.52346 113.12314 32102 ft 496 kts 300°
2026-04-28 14:18 -7.50651 113.09284 32230 ft 496 kts 300°
2026-04-28 14:19 -7.48959 113.06258 32352 ft 496 kts 300°
2026-04-28 14:19 -7.47266 113.03236 32487 ft 495 kts 300°
2026-04-28 14:19 -7.45574 113.00217 32601 ft 495 kts 301°
2026-04-28 14:19 -7.43880 112.97199 32708 ft 495 kts 300°
2026-04-28 14:20 -7.42214 112.94226 32856 ft 494 kts 300°
2026-04-28 14:20 -7.40528 112.91211 32966 ft 494 kts 300°
2026-04-28 14:20 -7.38843 112.88201 33097 ft 493 kts 300°
2026-04-28 14:20 -7.37156 112.85190 33225 ft 493 kts 300°
2026-04-28 14:21 -7.35473 112.82186 33350 ft 492 kts 300°
2026-04-28 14:21 -7.33792 112.79185 33475 ft 492 kts 300°
2026-04-28 14:21 -7.32112 112.76188 33599 ft 491 kts 300°
2026-04-28 14:21 -7.30431 112.73189 33722 ft 491 kts 300°
2026-04-28 14:22 -7.28756 112.70200 33997 ft 487 kts 300°
2026-04-28 14:22 -7.27095 112.67240 34369 ft 484 kts 300°
2026-04-28 14:22 -7.25449 112.64305 34761 ft 482 kts 300°
2026-04-28 14:22 -7.23801 112.61367 35136 ft 480 kts 301°
2026-04-28 14:23 -7.22160 112.58441 35510 ft 479 kts 301°
2026-04-28 14:23 -7.20521 112.55522 35798 ft 480 kts 301°
2026-04-28 14:23 -7.17205 112.49618 35886 ft 489 kts 300°
2026-04-28 14:24 -7.13872 112.43681 35888 ft 492 kts 300°
2026-04-28 14:24 -7.10472 112.37630 35889 ft 500 kts 300°
2026-04-28 14:25 -7.07043 112.31531 35887 ft 501 kts 301°
2026-04-28 14:25 -7.03607 112.25426 35887 ft 502 kts 300°
2026-04-28 14:26 -7.00169 112.19320 35889 ft 502 kts 301°
2026-04-28 14:26 -6.96725 112.13200 35887 ft 502 kts 300°
2026-04-28 14:27 -6.93287 112.07085 35887 ft 502 kts 300°
2026-04-28 14:27 -6.89869 112.01011 35887 ft 502 kts 301°
2026-04-28 14:28 -6.86830 111.94683 35888 ft 504 kts 289°
2026-04-28 14:28 -6.85505 111.87770 35890 ft 505 kts 274°
2026-04-28 14:29 -6.85100 111.80703 35888 ft 506 kts 276°
2026-04-28 14:29 -6.84188 111.73698 35887 ft 505 kts 280°
2026-04-28 14:30 -6.82892 111.66745 35887 ft 505 kts 282°
2026-04-28 14:30 -6.81515 111.59814 35887 ft 505 kts 282°
2026-04-28 14:31 -6.80154 111.52877 35888 ft 505 kts 282°
2026-04-28 14:31 -6.78810 111.45935 35888 ft 505 kts 282°
2026-04-28 14:32 -6.77468 111.38989 35888 ft 505 kts 282°
2026-04-28 14:32 -6.76131 111.32096 35888 ft 505 kts 282°
2026-04-28 14:33 -6.74786 111.25159 35887 ft 505 kts 282°
2026-04-28 14:33 -6.73441 111.18228 35888 ft 505 kts 282°
2026-04-28 14:34 -6.71422 111.07828 35888 ft 505 kts 282°
2026-04-28 14:35 -6.70071 111.00893 35888 ft 505 kts 282°
2026-04-28 14:35 -6.68720 110.93961 35888 ft 505 kts 282°
2026-04-28 14:36 -6.67371 110.87026 35888 ft 505 kts 282°
2026-04-28 14:36 -6.66249 110.81263 35887 ft 505 kts 282°
2026-04-28 14:37 -6.64898 110.74335 35887 ft 505 kts 282°
2026-04-28 14:37 -6.63545 110.67406 35887 ft 505 kts 282°
2026-04-28 14:38 -6.62193 110.60482 35888 ft 504 kts 281°
2026-04-28 14:38 -6.60843 110.53573 35888 ft 503 kts 281°
2026-04-28 14:39 -6.59496 110.46668 35887 ft 503 kts 281°
2026-04-28 14:39 -6.58157 110.39823 35887 ft 502 kts 281°
2026-04-28 14:40 -6.56804 110.32932 35887 ft 502 kts 281°
2026-04-28 14:40 -6.55449 110.26045 35888 ft 502 kts 282°
2026-04-28 14:41 -6.54094 110.19145 35888 ft 502 kts 281°
2026-04-28 14:41 -6.52744 110.12255 35887 ft 502 kts 281°
2026-04-28 14:42 -6.51391 110.05372 35886 ft 501 kts 281°
2026-04-28 14:42 -6.50041 109.98498 35887 ft 501 kts 281°
2026-04-28 14:43 -6.48689 109.91636 35888 ft 500 kts 281°
2026-04-28 14:43 -6.47348 109.84825 35888 ft 499 kts 281°
2026-04-28 14:44 -6.45999 109.77977 35889 ft 499 kts 281°
2026-04-28 14:44 -6.44651 109.71138 35888 ft 498 kts 282°
2026-04-28 14:45 -6.43305 109.64310 35887 ft 498 kts 282°
2026-04-28 14:45 -6.41955 109.57480 35888 ft 498 kts 281°
2026-04-28 14:46 -6.40606 109.50662 35886 ft 497 kts 282°
2026-04-28 14:46 -6.39254 109.43845 35888 ft 497 kts 282°
2026-04-28 14:47 -6.37906 109.37039 35888 ft 496 kts 282°
2026-04-28 14:47 -6.36561 109.30244 35886 ft 495 kts 282°
2026-04-28 14:48 -6.35228 109.23511 35888 ft 494 kts 282°
2026-04-28 14:48 -6.33884 109.16739 35888 ft 494 kts 282°
2026-04-28 14:49 -6.32541 109.09972 35888 ft 493 kts 282°
2026-04-28 14:49 -6.31201 109.03211 35888 ft 493 kts 282°
2026-04-28 14:50 -6.29860 108.96467 35888 ft 492 kts 282°
2026-04-28 14:50 -6.28522 108.89745 35888 ft 491 kts 282°
2026-04-28 14:51 -6.27182 108.83016 35888 ft 491 kts 282°
2026-04-28 14:51 -6.25843 108.76292 35888 ft 490 kts 282°
2026-04-28 14:52 -6.24792 108.71021 35888 ft 490 kts 282°
2026-04-28 14:52 -6.23451 108.64306 35888 ft 490 kts 282°
2026-04-28 14:53 -6.22118 108.57643 35888 ft 490 kts 282°
2026-04-28 14:53 -6.21447 108.54283 35304 ft 491 kts 282°
2026-04-28 14:53 -6.20776 108.50927 34656 ft 490 kts 282°
2026-04-28 14:53 -6.20103 108.47556 34035 ft 492 kts 282°
2026-04-28 14:54 -6.19431 108.44195 33447 ft 489 kts 282°
2026-04-28 14:54 -6.18761 108.40839 32864 ft 493 kts 282°
2026-04-28 14:54 -6.18084 108.37449 32276 ft 496 kts 282°
2026-04-28 14:54 -6.17408 108.34063 31688 ft 493 kts 282°
2026-04-28 14:55 -6.16728 108.30665 31073 ft 499 kts 282°
2026-04-28 14:55 -6.16045 108.27234 30382 ft 503 kts 282°
2026-04-28 14:55 -6.15355 108.23792 29646 ft 500 kts 281°
2026-04-28 14:55 -6.14669 108.20369 28926 ft 498 kts 282°
2026-04-28 14:56 -6.13988 108.16981 28215 ft 493 kts 281°
2026-04-28 14:56 -6.13311 108.13611 27509 ft 488 kts 282°
2026-04-28 14:56 -6.12652 108.10329 26822 ft 483 kts 282°
2026-04-28 14:56 -6.12003 108.07083 26143 ft 480 kts 281°
2026-04-28 14:57 -6.11354 108.03811 25459 ft 476 kts 281°
2026-04-28 14:57 -6.10914 108.01611 24998 ft 473 kts 281°
2026-04-28 14:57 -6.10063 107.97358 24110 ft 466 kts 281°
2026-04-28 14:57 -6.09423 107.94182 23454 ft 462 kts 281°
2026-04-28 14:58 -6.08788 107.91036 22788 ft 457 kts 281°
2026-04-28 14:58 -6.08158 107.87927 22138 ft 452 kts 281°
2026-04-28 14:58 -6.07533 107.84846 21481 ft 447 kts 281°
2026-04-28 14:58 -6.06915 107.81798 20849 ft 443 kts 281°
2026-04-28 14:59 -6.06305 107.78781 20218 ft 439 kts 281°
2026-04-28 14:59 -6.05703 107.75772 19588 ft 439 kts 281°
2026-04-28 14:59 -6.05103 107.72773 18956 ft 436 kts 282°
2026-04-28 14:59 -6.04512 107.69814 18334 ft 429 kts 283°
2026-04-28 15:00 -6.03931 107.66901 17733 ft 420 kts 283°
2026-04-28 15:00 -6.03359 107.64051 17129 ft 413 kts 283°
2026-04-28 15:00 -6.02791 107.61234 16543 ft 409 kts 283°
2026-04-28 15:00 -6.02229 107.58449 15962 ft 406 kts 283°
2026-04-28 15:01 -6.01671 107.55686 15382 ft 402 kts 283°
2026-04-28 15:01 -6.01122 107.52939 14799 ft 400 kts 283°
2026-04-28 15:01 -6.00573 107.50209 14217 ft 397 kts 283°
2026-04-28 15:01 -6.00025 107.47518 13644 ft 397 kts 283°
2026-04-28 15:02 -5.99475 107.44807 13067 ft 396 kts 283°
2026-04-28 15:02 -5.98922 107.42114 12494 ft 392 kts 283°
2026-04-28 15:02 -5.98370 107.39453 11928 ft 389 kts 283°
2026-04-28 15:02 -5.97823 107.36812 11377 ft 385 kts 283°
2026-04-28 15:03 -5.97298 107.34182 10996 ft 382 kts 282°
2026-04-28 15:03 -5.96782 107.31583 10834 ft 369 kts 282°
2026-04-28 15:03 -5.96339 107.29128 10722 ft 347 kts 278°
2026-04-28 15:03 -5.96172 107.26786 10646 ft 327 kts 272°
2026-04-28 15:04 -5.96141 107.24567 10563 ft 311 kts 271°
2026-04-28 15:04 -5.96143 107.22420 10409 ft 306 kts 271°
2026-04-28 15:04 -5.96148 107.20289 10032 ft 304 kts 270°
2026-04-28 15:04 -5.96152 107.18176 9490 ft 301 kts 269°
2026-04-28 15:05 -5.96158 107.16078 8995 ft 300 kts 269°
2026-04-28 15:05 -5.96163 107.13992 8512 ft 298 kts 269°
2026-04-28 15:05 -5.96163 107.11942 8048 ft 297 kts 269°
2026-04-28 15:05 -5.96170 107.11446 7940 ft 295 kts 266°
2026-04-28 15:06 -5.96545 107.09401 7494 ft 292 kts 252°
2026-04-28 15:06 -5.97199 107.07486 7102 ft 288 kts 248°
2026-04-28 15:06 -5.97914 107.05624 6704 ft 283 kts 248°
2026-04-28 15:06 -5.98629 107.03793 6325 ft 281 kts 248°
2026-04-28 15:07 -5.99344 107.01972 5914 ft 280 kts 247°
2026-04-28 15:07 -6.00060 107.00161 5515 ft 277 kts 247°
2026-04-28 15:07 -6.00772 106.98365 5140 ft 276 kts 247°
2026-04-28 15:07 -6.01483 106.96576 4766 ft 275 kts 247°
2026-04-28 15:08 -6.02188 106.94797 4414 ft 271 kts 247°
2026-04-28 15:08 -6.02883 106.93041 4297 ft 271 kts 248°
2026-04-28 15:08 -6.03582 106.91281 4289 ft 272 kts 248°
2026-04-28 15:08 -6.04249 106.89593 4277 ft 259 kts 248°
2026-04-28 15:09 -6.04872 106.88014 4246 ft 226 kts 247°
2026-04-28 15:09 -6.05431 106.86609 3957 ft 209 kts 248°
2026-04-28 15:09 -6.05952 106.85298 3683 ft 196 kts 248°
2026-04-28 15:09 -6.06279 106.84469 3518 ft 191 kts 248°
2026-04-28 15:10 -6.06926 106.82845 3198 ft 188 kts 247°
2026-04-28 15:10 -6.07415 106.81615 2950 ft 187 kts 248°
2026-04-28 15:10 -6.07888 106.80419 2722 ft 187 kts 247°
2026-04-28 15:10 -6.08371 106.79212 2482 ft 186 kts 248°
2026-04-28 15:11 -6.08848 106.78006 2238 ft 185 kts 248°
2026-04-28 15:11 -6.09317 106.76814 1995 ft 184 kts 248°
2026-04-28 15:11 -6.09787 106.75623 1747 ft 182 kts 248°
2026-04-28 15:11 -6.10247 106.74465 1487 ft 169 kts 248°
2026-04-28 15:12 -6.10660 106.73419 1265 ft 157 kts 248°
2026-04-28 15:12 -6.11059 106.72410 1089 ft 155 kts 248°
2026-04-28 15:12 -6.11454 106.71413 892 ft 154 kts 248°
2026-04-28 15:12 -6.11850 106.70415 684 ft 153 kts 248°
2026-04-28 15:13 -6.12237 106.69410 500 ft 148 kts 249°
2026-04-28 15:13 -6.12614 106.68453 284 ft 156 kts 246°
2026-04-28 15:13 -6.13017 106.67453 105 ft 150 kts 247°
2026-04-28 15:13 -6.13377 106.66563 51 ft 122 kts 248°
2026-04-28 15:14 -6.13639 106.65905 47 ft 87 kts 248°
2026-04-28 15:14 -6.13809 106.65481 48 ft 46 kts 248°
2026-04-28 15:14 -6.13891 106.65235 48 ft 33 kts 263°
2026-04-28 15:14 -6.13877 106.65050 48 ft 16 kts 282°
2026-04-28 15:15 -6.13847 106.64999 47 ft 2 kts 331°
2026-04-28 15:15 -6.13819 106.64989 46 ft 13 kts 340°
2026-04-28 15:15 -6.13633 106.64917 46 ft 27 kts 339°
2026-04-28 15:15 -6.13460 106.64849 46 ft 26 kts 339°
2026-04-28 15:16 -6.13296 106.64783 46 ft 25 kts 337°
2026-04-28 15:16 -6.13143 106.64720 46 ft 23 kts 338°
2026-04-28 15:16 -6.13027 106.64675 60 ft 13 kts 339°
2026-04-28 15:16 -6.12977 106.64655 66 ft 4 kts 338°
2026-04-28 15:17 -6.12931 106.64637 63 ft 11 kts 338°
2026-04-28 15:17 -6.12837 106.64599 51 ft 19 kts 339°
2026-04-28 15:17 -6.12703 106.64547 46 ft 21 kts 339°
2026-04-28 15:17 -6.12574 106.64495 46 ft 19 kts 337°
2026-04-28 15:18 -6.12454 106.64446 46 ft 20 kts 338°
2026-04-28 15:18 -6.12308 106.64387 46 ft 24 kts 340°
2026-04-28 15:18 -6.12170 106.64336 46 ft 15 kts 342°
2026-04-28 15:18 -6.12129 106.64339 46 ft 7 kts 20°
2026-04-28 15:19 -6.12097 106.64377 46 ft 9 kts 70°
2026-04-28 15:19 -6.12056 106.64485 46 ft 24 kts 68°
2026-04-28 15:19 -6.11992 106.64642 47 ft 24 kts 68°
2026-04-28 15:19 -6.11933 106.64791 46 ft 22 kts 68°
2026-04-28 15:20 -6.11878 106.64929 47 ft 21 kts 68°
2026-04-28 15:20 -6.11825 106.65062 47 ft 20 kts 68°
2026-04-28 15:20 -6.11780 106.65174 46 ft 13 kts 68°
2026-04-28 15:20 -6.11775 106.65218 46 ft 1 kts 112°
2026-04-28 15:21 -6.11783 106.65221 46 ft 3 kts 153°
2026-04-28 15:21 -6.11846 106.65244 46 ft 12 kts 159°
2026-04-28 15:21 -6.11886 106.65278 46 ft 8 kts 131°
2026-04-28 15:21 -6.11932 106.65337 46 ft 13 kts 124°
2026-04-28 15:22 -6.11968 106.65387 45 ft 2 kts 135°
2026-04-28 15:22 -6.11978 106.65390 45 ft 1 kts 164°
2026-04-28 15:22 -6.11997 106.65380 45 ft 5 kts 212°
2026-04-28 15:22 -6.12015 106.65358 45 ft 1 kts 231°
2026-04-28 15:23 -6.12027 106.65344 45 ft 2 kts 230°
2026-04-28 15:23 -6.12035 106.65334 46 ft 1 kts 230°
2026-04-28 15:23 -6.12039 106.65330 46 ft 0 kts 230°
2026-04-28 15:23 -6.12040 106.65329 46 ft 0 kts 230°